Ladysmith, WI

10:43 AM CDT on August 28, 2016 (GMT -0500)
Rusk County

Weather History for KRCX - November, 2013

Change the Weather History Date:

Monday, November 11, 2013

  Actual Average (KRPD) Record (KRPD)
Temperature  
Mean Temperature 26 °F -  
Max Temperature 36 °F 40 °F 62 °F (2012)
Min Temperature 16 °F 26 °F 14 °F (2014)
Degree Days  
Heating Degree Days 39    
Moisture  
Dew Point 14 °F    
Average Humidity 62    
Maximum Humidity 82    
Minimum Humidity 41    
Precipitation  
Precipitation 0.00 in - - ()
Sea Level Pressure  
Sea Level Pressure 30.35 in    
Wind  
Wind Speed 12 mph (NNW)    
Max Wind Speed 22 mph    
Max Gust Speed 30 mph    
Visibility 10 miles    
Events Snow    
Averages and records for this station are not official NWS values.
T = Trace of Precipitation, MM = Missing Value Source: NWS Daily Summary

Daily Weather History Graph

Daily Weather History Graph

Search for Another Location

Airport or City:

Trip Planner

Search our weather history database for the weather conditions in past years. The results will help you decide how hot, cold, wet, or windy it might be!

Date:

Astronomy

Nov. 11, 2013 Rise Set
Actual Time 6:57 AM CST 4:37 PM CST
Civil Twilight 6:26 AM CST 5:09 PM CST
Nautical Twilight 5:50 AM CST 5:45 PM CST
Astronomical Twilight 5:15 AM CST 6:19 PM CST
Moon 1:34 PM CST (11/11) 12:25 AM CST (11/11)
Length of Visible Light 10h 43m
Length of Day
9h 39m
Waxing Gibbous, 66% of the Moon is Illuminated
Nov 11
Waxing Gibbous
Nov 17
Full
Nov 25
Last Quarter
Dec 2
New
Dec 9
First Quarter

Hourly Weather History & Observations

Time (CST) Temp. Windchill Dew Point Humidity Pressure Visibility Wind Dir Wind Speed Gust Speed Precip Events Conditions
12:15 AM 36.5 °F 32.7 °F 31.1 °F 81% 30.07 in 10.0 mi West 4.6 mph - N/A   Overcast
12:35 AM 36.5 °F 32.7 °F 31.1 °F 81% 30.06 in 10.0 mi West 4.6 mph - N/A   Overcast
12:55 AM 36.1 °F 30.6 °F 31.1 °F 82% 30.06 in 10.0 mi West 6.9 mph - N/A   Overcast
1:15 AM 36.3 °F 29.5 °F 31.1 °F 81% 30.06 in 10.0 mi West 9.2 mph - N/A   Overcast
1:35 AM 36.5 °F 29.7 °F 30.2 °F 78% 30.06 in 10.0 mi WNW 9.2 mph - N/A   Overcast
1:55 AM 36.1 °F 26.9 °F 29.8 °F 78% 30.07 in 10.0 mi WNW 15.0 mph - N/A   Overcast
2:15 AM 35.8 °F 27.8 °F 29.7 °F 78% 30.07 in 10.0 mi NW 11.5 mph - N/A   Overcast
2:35 AM 35.6 °F 27.1 °F 29.7 °F 79% 30.08 in 10.0 mi NW 12.7 mph 18.4 mph N/A   Overcast
2:55 AM 34.9 °F 23.3 °F 29.1 °F 79% 30.09 in 10.0 mi NNW 21.9 mph 29.9 mph N/A   Overcast
3:15 AM 32.0 °F 21.2 °F 25.7 °F 78% 30.10 in 10.0 mi NNW 16.1 mph 24.2 mph N/A   Overcast
3:35 AM 31.5 °F 21.8 °F 24.4 °F 75% 30.12 in 10.0 mi NW 12.7 mph - N/A   Overcast
3:55 AM 29.8 °F 18.0 °F 18.0 °F 61% 30.12 in 10.0 mi NNW 17.3 mph 25.3 mph N/A   Overcast
4:15 AM 29.8 °F 18.4 °F 19.4 °F 65% 30.13 in 10.0 mi North 16.1 mph 26.5 mph N/A   Overcast
4:35 AM 29.3 °F 18.2 °F 20.1 °F 69% 30.14 in 10.0 mi North 15.0 mph 25.3 mph N/A   Overcast
4:55 AM 28.4 °F 17.0 °F 20.1 °F 71% 30.16 in 10.0 mi NNW 15.0 mph 23.0 mph N/A   Overcast
5:15 AM 27.1 °F 14.9 °F 15.6 °F 62% 30.18 in 10.0 mi NNW 16.1 mph 25.3 mph N/A   Overcast
5:35 AM 26.4 °F 14.0 °F 16.7 °F 67% 30.18 in 10.0 mi NNW 16.1 mph 21.9 mph N/A   Overcast
5:55 AM 25.7 °F 12.3 °F 16.2 °F 67% 30.20 in 10.0 mi NNW 18.4 mph 23.0 mph N/A   Overcast
6:15 AM 25.2 °F 12.9 °F 15.8 °F 68% 30.21 in 10.0 mi North 15.0 mph 19.6 mph N/A   Mostly Cloudy
6:35 AM 24.8 °F 11.5 °F 14.7 °F 66% 30.23 in 10.0 mi NNW 17.3 mph 20.7 mph N/A   Mostly Cloudy
6:55 AM 23.9 °F 10.8 °F 13.6 °F 65% 30.24 in 10.0 mi NNW 16.1 mph - N/A   Scattered Clouds
7:15 AM 23.5 °F 12.4 °F 14.0 °F 67% 30.26 in 10.0 mi North 11.5 mph - N/A   Mostly Cloudy
7:35 AM 23.5 °F 12.4 °F 14.9 °F 70% 30.27 in 10.0 mi North 11.5 mph 19.6 mph N/A Snow Light Snow
7:55 AM 23.0 °F 11.1 °F 15.1 °F 72% 30.29 in 10.0 mi North 12.7 mph 18.4 mph N/A   Overcast
8:15 AM 22.8 °F 11.5 °F 14.7 °F 71% 30.29 in 7.0 mi North 11.5 mph 20.7 mph N/A Snow Light Snow
8:35 AM 22.1 °F 8.0 °F 12.4 °F 66% 30.31 in 10.0 mi NNW 17.3 mph 24.2 mph N/A Snow Light Snow
8:55 AM 22.1 °F 8.9 °F 11.8 °F 65% 30.32 in 10.0 mi NNW 15.0 mph 20.7 mph N/A   Overcast
9:15 AM 22.1 °F 10.0 °F 10.6 °F 61% 30.32 in 10.0 mi North 12.7 mph 24.2 mph N/A   Mostly Cloudy
9:35 AM 22.6 °F 8.3 °F 10.9 °F 61% 30.32 in 10.0 mi North 18.4 mph 21.9 mph N/A   Mostly Cloudy
9:55 AM 24.1 °F 10.6 °F 10.6 °F 56% 30.33 in 10.0 mi NNW 17.3 mph 25.3 mph N/A   Scattered Clouds
10:15 AM 23.2 °F 11.4 °F 9.5 °F 56% 30.34 in 10.0 mi North 12.7 mph 24.2 mph N/A   Clear
10:35 AM 24.1 °F 13.7 °F 10.4 °F 56% 30.34 in 10.0 mi North 10.4 mph - N/A   Scattered Clouds
10:55 AM 25.0 °F 12.6 °F 11.1 °F 56% 30.35 in 10.0 mi NNW 15.0 mph - N/A   Mostly Cloudy
11:15 AM 26.4 °F 13.2 °F 11.1 °F 53% 30.35 in 10.0 mi NW 18.4 mph - N/A   Scattered Clouds
11:35 AM 26.1 °F 15.0 °F 10.6 °F 52% 30.35 in 10.0 mi North 12.7 mph 21.9 mph N/A   Scattered Clouds
11:55 AM 26.2 °F 15.8 °F 9.1 °F 49% 30.35 in 10.0 mi NNW 11.5 mph 20.7 mph N/A   Scattered Clouds
12:15 PM 27.3 °F 17.1 °F 8.6 °F 45% 30.36 in 10.0 mi NNW 11.5 mph 23.0 mph N/A   Clear
12:35 PM 27.9 °F 16.8 °F 9.3 °F 46% 30.36 in 10.0 mi NW 13.8 mph 21.9 mph N/A   Scattered Clouds
12:55 PM 27.5 °F 15.4 °F 8.6 °F 45% 30.36 in 10.0 mi North 16.1 mph 20.7 mph N/A   Scattered Clouds
1:15 PM 28.0 °F 17.5 °F 7.2 °F 41% 30.37 in 10.0 mi NNW 12.7 mph 21.9 mph N/A   Scattered Clouds
1:35 PM 27.5 °F 15.0 °F 7.7 °F 43% 30.37 in 10.0 mi NNW 17.3 mph 23.0 mph N/A   Scattered Clouds
1:55 PM 29.1 °F 17.5 °F 9.3 °F 44% 30.37 in 10.0 mi NNW 16.1 mph 20.7 mph N/A   Scattered Clouds
2:15 PM 27.9 °F 17.3 °F 8.6 °F 44% 30.39 in 10.0 mi NW 12.7 mph 21.9 mph N/A   Scattered Clouds
2:35 PM 27.7 °F 16.1 °F 9.0 °F 45% 30.39 in 10.0 mi NNW 15.0 mph 19.6 mph N/A   Clear
2:55 PM 27.5 °F 16.3 °F 9.0 °F 46% 30.39 in 10.0 mi NW 13.8 mph 23.0 mph N/A   Clear
3:15 PM 27.1 °F 15.9 °F 8.1 °F 45% 30.41 in 10.0 mi NNW 13.8 mph 21.9 mph N/A   Clear
3:35 PM 26.6 °F 14.7 °F 8.4 °F 46% 30.42 in 10.0 mi NNW 15.0 mph 21.9 mph N/A   Clear
3:55 PM 26.2 °F 13.4 °F 7.9 °F 46% 30.42 in 10.0 mi North 17.3 mph 20.7 mph N/A   Clear
4:15 PM 25.7 °F 14.0 °F 7.7 °F 47% 30.44 in 10.0 mi NNW 13.8 mph 18.4 mph N/A   Clear
4:35 PM 25.3 °F 14.1 °F 8.4 °F 49% 30.44 in 10.0 mi NNW 12.7 mph - N/A   Clear
4:55 PM 24.6 °F 13.8 °F 8.2 °F 50% 30.45 in 10.0 mi North 11.5 mph 17.3 mph N/A   Clear
5:15 PM 24.1 °F 13.1 °F 8.4 °F 51% 30.47 in 10.0 mi North 11.5 mph 17.3 mph N/A   Clear
5:35 PM 23.4 °F 13.5 °F 9.5 °F 55% 30.47 in 10.0 mi North 9.2 mph - N/A   Clear
5:55 PM 23.4 °F 12.8 °F 9.1 °F 55% 30.49 in 10.0 mi NNW 10.4 mph - N/A   Clear
6:15 PM 22.8 °F 12.9 °F 9.9 °F 58% 30.50 in 10.0 mi NNW 9.2 mph - N/A   Clear
6:35 PM 21.6 °F 13.0 °F 9.5 °F 60% 30.51 in 10.0 mi NW 6.9 mph - N/A   Clear
6:55 PM 21.2 °F 11.7 °F 9.5 °F 61% 30.53 in 10.0 mi NNW 8.1 mph - N/A   Clear
7:15 PM 21.7 °F 11.5 °F 9.1 °F 58% 30.53 in 10.0 mi NNW 9.2 mph - N/A   Clear
7:35 PM 20.7 °F 11.0 °F 9.5 °F 62% 30.54 in 10.0 mi NNW 8.1 mph - N/A   Clear
7:55 PM 20.1 °F 10.3 °F 9.5 °F 63% 30.55 in 10.0 mi NW 8.1 mph - N/A   Clear
8:15 PM 19.8 °F 9.9 °F 9.3 °F 64% 30.56 in 10.0 mi NW 8.1 mph - N/A   Clear
8:35 PM 19.9 °F 8.6 °F 8.6 °F 61% 30.56 in 10.0 mi NW 10.4 mph - N/A   Scattered Clouds
8:55 PM 19.9 °F 8.6 °F 8.4 °F 61% 30.57 in 10.0 mi NW 10.4 mph - N/A   Scattered Clouds
9:15 PM 19.2 °F 7.7 °F 8.6 °F 63% 30.58 in 10.0 mi NW 10.4 mph - N/A   Clear
9:35 PM 19.4 °F 8.6 °F 8.6 °F 63% 30.59 in 10.0 mi NW 9.2 mph 16.1 mph N/A   Clear
9:55 PM 19.0 °F 7.5 °F 8.6 °F 64% 30.60 in 10.0 mi NW 10.4 mph - N/A   Clear
10:15 PM 18.5 °F 6.8 °F 8.6 °F 65% 30.60 in 10.0 mi NW 10.4 mph - N/A   Clear
10:35 PM 18.0 °F 6.9 °F 8.6 °F 67% 30.61 in 10.0 mi NW 9.2 mph - N/A   Clear
10:55 PM 17.8 °F 6.6 °F 8.6 °F 67% 30.61 in 10.0 mi NW 9.2 mph - N/A   Clear
11:15 PM 17.1 °F 5.8 °F 9.0 °F 71% 30.61 in 10.0 mi WNW 9.2 mph - N/A   Clear
11:35 PM 16.7 °F 6.2 °F 8.6 °F 70% 30.62 in 10.0 mi NW 8.1 mph - N/A   Clear
11:55 PM 16.5 °F 5.1 °F 8.8 °F 72% 30.62 in 10.0 mi NW 9.2 mph - N/A   Clear